This is the latest recevied weather packets stored in our database for station/object S51UL-6. If no packets are shown the sender has not sent any weather packets the latest 10 day(s).
| Time | Temp. | Humidity | Pressure | Rain* | Wind** | Luminosity | Snow |
|---|---|---|---|---|---|---|---|
| 1788673220 | 14.44° C | 92% | 1026.8 hPa | 2.03 mm | - | - | - |
| 1788672921 | 14.44° C | 91% | 1026.8 hPa | 3.56 mm | - | - | - |
| 1788672620 | 14.44° C | 91% | 1026.8 hPa | 4.57 mm | - | - | - |
| 1788672320 | 13.89° C | 91% | 1026.8 hPa | 6.1 mm | - | - | - |
| 1788672020 | 13.89° C | 91% | 1026.7 hPa | 6.6 mm | - | - | - |
| 1788671721 | 13.89° C | 91% | 1026.8 hPa | 7.62 mm | - | - | - |
| 1788671420 | 13.89° C | 91% | 1026.8 hPa | 9.4 mm | - | - | - |
| 1788670820 | 13.89° C | 91% | 1026.6 hPa | 27.43 mm | - | - | - |
| 1788670521 | 13.89° C | 91% | 1026.7 hPa | 27.43 mm | - | - | - |
| 1788670220 | 13.89° C | 91% | 1026.5 hPa | 27.43 mm | - | - | - |
| 1788669921 | 13.89° C | 91% | 1026.4 hPa | 46.23 mm | - | - | - |
| 1788669620 | 13.89° C | 91% | 1026.4 hPa | 50.29 mm | - | - | - |
| 1788669341 | 13.33° C | 91% | 1026.2 hPa | 59.94 mm | - | - | - |
| 1788668721 | 13.33° C | 91% | 1026.1 hPa | 102.62 mm | - | - | - |
| 1788668421 | 13.33° C | 91% | 1025.9 hPa | 102.62 mm | - | - | - |
| 1788668121 | 13.33° C | 91% | 1025.9 hPa | 129.54 mm | - | - | - |
| 1788667244 | 13.33° C | 91% | 1025.9 hPa | 167.39 mm | - | - | - |
| 1788666921 | 13.33° C | 91% | 1025.9 hPa | 167.39 mm | - | - | - |
| 1788666622 | 13.33° C | 91% | 1025.8 hPa | 148.59 mm | - | - | - |
| 1788666321 | 13.33° C | 91% | 1025.7 hPa | 187.71 mm | - | - | - |
| 1788666021 | 13.33° C | 91% | 1025.6 hPa | 191.26 mm | - | - | - |
| 1788665722 | 13.33° C | 91% | 1025.5 hPa | 195.83 mm | - | - | - |
| 1788665122 | 13.33° C | 91% | 1025.3 hPa | 204.72 mm | - | - | - |
| 1788664821 | 13.33° C | 91% | 1025.5 hPa | 207.77 mm | - | - | - |
| 1788664522 | 13.33° C | 91% | 1025.4 hPa | 210.57 mm | - | - | - |
* Rain latest hour (hover to see other rain measurements)
** Current wind speed in m/s (hover to see current wind gust speed)